Charleston, SC

10:42 AM EDT on May 25, 2017 (GMT -0400)
Charleston Air Force Base-International

Weather History for KCHS - November, 2013

Change the Weather History Date:

Wednesday, November 27, 2013

  Actual Average Record
Temperature  
Mean Temperature 54 °F 56 °F  
Max Temperature 70 °F 67 °F 86 °F (1973)
Min Temperature 37 °F 44 °F 26 °F (1939)
Degree Days  
Heating Degree Days 11 10  
Month to date heating degree days 202 191  
Since 1 July heating degree days 244 260  
Cooling Degree Days 0 1  
Month to date cooling degree days 34 32  
Year to date cooling degree days 2429 2296  
Growing Degree Days 2 (Base 50)    
Moisture  
Dew Point 50 °F    
Average Humidity 79    
Maximum Humidity 87    
Minimum Humidity 70    
Precipitation  
Precipitation 0.09 in 0.08 in 1.46 in (1946)
Month to date precipitation 3.52 2.18  
Year to date precipitation 55.96 47.67  
Sea Level Pressure  
Sea Level Pressure 29.76 in    
Wind  
Wind Speed 13 mph (West)    
Max Wind Speed 25 mph    
Max Gust Speed 33 mph    
Visibility 10 miles    
Events Rain    
T = Trace of Precipitation, MM = Missing Value Source: NWS Daily Summary

Daily Weather History Graph

Daily Weather History Graph

Search for Another Location

Airport or City:

Trip Planner

Search our weather history database for the weather conditions in past years. The results will help you decide how hot, cold, wet, or windy it might be!

Date:

Astronomy

Nov. 27, 2013 Rise Set
Actual Time 7:01 AM EST 5:14 PM EST
Civil Twilight 6:34 AM EST 5:40 PM EST
Nautical Twilight 6:04 AM EST 6:11 PM EST
Astronomical Twilight 5:34 AM EST 6:40 PM EST
Moon 1:19 AM EST (11/27) 1:34 PM EST (11/27)
Length of Visible Light 11h 06m
Length of Day
10h 12m
Waning Crescent, 32% of the Moon is Illuminated
Nov 27
Waning Crescent
Dec 2
New
Dec 9
First Quarter
Dec 17
Full
Dec 25
Last Quarter

Hourly Weather History & Observations

Time (EST) Temp. Windchill Dew Point Humidity Pressure Visibility Wind Dir Wind Speed Gust Speed Precip Events Conditions
12:12 AM 69.8 °F - 66.2 °F 88% 29.61 in 10.0 mi SSW 15.0 mph 27.6 mph N/A   Mostly Cloudy
12:56 AM 70.0 °F - 64.9 °F 84% 29.59 in 10.0 mi SW 18.4 mph 28.8 mph N/A   Mostly Cloudy
1:22 AM 69.8 °F - 64.4 °F 83% 29.59 in 10.0 mi SW 13.8 mph 26.5 mph N/A   Mostly Cloudy
1:56 AM 70.0 °F - 64.9 °F 84% 29.57 in 10.0 mi SW 18.4 mph 25.3 mph N/A   Overcast
2:33 AM 69.8 °F - 64.4 °F 83% 29.57 in 10.0 mi SW 13.8 mph 23.0 mph 0.00 in   Overcast
2:56 AM 70.0 °F - 64.9 °F 84% 29.56 in 10.0 mi SW 12.7 mph - 0.00 in   Overcast
3:56 AM 68.0 °F - 64.9 °F 90% 29.54 in 10.0 mi South 9.2 mph - N/A   Overcast
4:15 AM 68.0 °F - 64.4 °F 88% 29.54 in 10.0 mi South 10.4 mph - N/A   Mostly Cloudy
4:56 AM 68.0 °F - 64.0 °F 87% 29.53 in 10.0 mi SSW 12.7 mph - N/A   Overcast
5:56 AM 69.1 °F - 64.9 °F 87% 29.52 in 10.0 mi SW 13.8 mph - N/A   Overcast
6:26 AM 66.2 °F - 62.6 °F 88% 29.55 in 10.0 mi West 17.3 mph 31.1 mph 0.00 in Rain Light Rain
6:56 AM 64.9 °F - 61.0 °F 87% 29.55 in 8.0 mi West 11.5 mph - 0.01 in Rain Light Rain
7:56 AM 63.0 °F - 57.9 °F 84% 29.57 in 10.0 mi WSW 15.0 mph 21.9 mph 0.07 in   Overcast
8:56 AM 59.0 °F - 54.0 °F 83% 29.60 in 10.0 mi WSW 18.4 mph 28.8 mph 0.01 in   Mostly Cloudy
9:56 AM 55.0 °F - 50.0 °F 83% 29.65 in 10.0 mi West 16.1 mph 25.3 mph N/A   Overcast
10:56 AM 54.0 °F - 48.0 °F 80% 29.68 in 10.0 mi West 13.8 mph 21.9 mph 0.00 in   Overcast
11:56 AM 52.0 °F - 45.0 °F 77% 29.70 in 10.0 mi West 12.7 mph 26.5 mph N/A   Overcast
12:56 PM 51.1 °F - 43.0 °F 74% 29.73 in 10.0 mi West 19.6 mph 26.5 mph N/A   Overcast
1:56 PM 50.0 °F - 42.1 °F 74% 29.77 in 10.0 mi WNW 18.4 mph 26.5 mph N/A   Overcast
2:56 PM 46.9 °F - 39.9 °F 77% 29.82 in 10.0 mi WNW 21.9 mph 29.9 mph N/A   Overcast
3:56 PM 46.0 °F 39.6 °F 41.0 °F 83% 29.88 in 6.0 mi WNW 15.0 mph 24.2 mph N/A   Haze
4:49 PM 46.4 °F 39.8 °F 39.2 °F 76% 29.92 in 10.0 mi NW 16.1 mph 21.9 mph N/A   Mostly Cloudy
4:56 PM 46.0 °F 40.2 °F 39.9 °F 79% 29.93 in 10.0 mi NW 12.7 mph 23.0 mph N/A   Mostly Cloudy
5:56 PM 45.0 °F 38.5 °F 37.0 °F 74% 29.99 in 10.0 mi NNW 13.8 mph - N/A   Mostly Cloudy
6:56 PM 43.0 °F 38.8 °F 36.0 °F 76% 30.04 in 10.0 mi NW 6.9 mph - N/A   Partly Cloudy
7:56 PM 43.0 °F 39.5 °F 36.0 °F 76% 30.09 in 10.0 mi WNW 5.8 mph - N/A   Scattered Clouds
8:56 PM 44.1 °F 40.8 °F 36.0 °F 73% 30.12 in 10.0 mi WNW 5.8 mph - N/A   Mostly Cloudy
9:56 PM 42.1 °F 37.7 °F 37.0 °F 82% 30.14 in 10.0 mi WNW 6.9 mph - N/A   Scattered Clouds
10:56 PM 39.9 °F 32.5 °F 35.1 °F 83% 30.19 in 10.0 mi NNW 12.7 mph - N/A   Partly Cloudy
11:56 PM 37.9 °F 30.9 °F 32.0 °F 79% 30.22 in 10.0 mi NW 10.4 mph - N/A   Clear